2023-121A (57626 NORAD) Tracking and Keplerian Element Data

This shows tracking and keplerian element data for the satellite.

Feedback or suggestion? Click here.




ElementValue
Catalog57626
Name2023-121A
Epoch Orbit189
Epoch Day239.16000944
Epoch Year2023
RAAN297.6198
Inclination45.0034
Eccentricity0.0007087
Argument of Perigee308.8225
Mean Anonmoly51.1997
Mean Motion14.57642561
Decay Rate9.42E-06
L11 57626U 23121A 23239.16000944 .00000942 00000+0 23843-3 0 9995
L22 57626 45.0034 297.6198 0007087 308.8225 51.1997 14.57642561 1897



Live tracking and technical data element details for 2023-121A (NORAD 57626). 2023-121A can be tracked NOW for your location showing map with azimuth and elevation plus other details from your city location.







IsCatalogInMostPopularTable: catalog: 57626, numindb: 20
Update: records affected: 1



GetName: 57626 2023-121A

Hit Count: updated at: Mon, 04 Dec 2023 03:37:18 GMT